Time,TemperatureF,DewpointF,PressureIn,WindDirection,WindDirectionDegrees,WindSpeedMPH,WindSpeedGustMPH,Humidity,HourlyPrecipIn,Conditions,Clouds,dailyrainin,SolarRadiationWatts/m^2,SoftwareType,DateUTC
2013-08-06 00:00:00,51.5,49.5,30.08,WSW,247,0.0,0.0,93,0.00,,---,0.00,0.00,VWS V14.01,2013-08-06 04:00:00,
2013-08-06 00:01:00,51.4,49.5,30.08,WSW,247,0.0,0.0,93,0.00,,---,0.00,0.00,VWS V14.01,2013-08-06 04:01:00,
2013-08-06 00:06:00,51.3,49.3,30.09,WSW,247,0.0,0.0,93,0.00,,---,0.00,0.00,VWS V14.01,2013-08-06 04:06:00,
2013-08-06 00:11:00,51.3,49.3,30.09,WSW,247,0.0,0.0,93,0.00,,---,0.00,0.00,VWS V14.01,2013-08-06 04:11:00,
2013-08-06 00:16:00,51.2,49.5,30.09,WSW,247,0.0,0.0,94,0.00,,---,0.00,0.00,VWS V14.01,2013-08-06 04:16:00,
2013-08-06 00:21:00,51.1,49.4,30.09,WSW,247,0.0,0.0,94,0.00,,---,0.00,0.00,VWS V14.01,2013-08-06 04:21:00,
2013-08-06 00:26:00,50.9,49.0,30.09,WSW,247,0.0,0.0,93,0.00,,---,0.00,0.00,VWS V14.01,2013-08-06 04:26:00,
2013-08-06 00:30:00,52.4,50.2,30.08,WSW,247,0.0,0.0,92,0.00,,---,0.00,0.00,VWS V14.01,2013-08-06 04:30:00,
2013-08-06 00:31:00,50.7,48.8,30.09,WSW,247,0.0,0.0,93,0.00,,---,0.00,0.00,VWS V14.01,2013-08-06 04:31:00,
2013-08-06 00:36:00,50.5,48.8,30.09,WSW,247,0.0,0.0,94,0.00,,---,0.00,0.00,VWS V14.01,2013-08-06 04:36:00,
2013-08-06 00:41:00,50.4,48.7,30.08,WSW,247,0.0,0.0,94,0.00,,---,0.00,0.00,VWS V14.01,2013-08-06 04:41:00,
2013-08-06 00:46:00,50.3,48.6,30.08,WSW,247,0.0,0.0,94,0.00,,---,0.00,0.00,VWS V14.01,2013-08-06 04:46:00,
2013-08-06 00:51:00,50.2,48.5,30.09,WSW,247,0.0,0.0,94,0.00,,---,0.00,0.00,VWS V14.01,2013-08-06 04:51:00,
2013-08-06 00:56:00,50.0,48.3,30.09,WSW,247,0.0,0.0,94,0.00,,---,0.00,0.00,VWS V14.01,2013-08-06 04:56:00,
2013-08-06 01:00:00,51.5,49.5,30.08,WSW,247,0.0,0.0,93,0.00,,---,0.00,0.00,VWS V14.01,2013-08-06 05:00:00,
2013-08-06 01:01:00,49.9,48.2,30.09,WSW,247,0.0,0.0,94,0.00,,---,0.00,0.00,VWS V14.01,2013-08-06 05:01:00,
2013-08-06 01:06:00,50.0,48.6,30.09,WSW,247,0.0,0.0,95,0.00,,---,0.00,0.00,VWS V14.01,2013-08-06 05:06:00,
2013-08-06 01:11:00,49.9,48.5,30.09,WSW,247,0.0,0.0,95,0.00,,---,0.00,0.00,VWS V14.01,2013-08-06 05:11:00,
2013-08-06 01:16:00,49.7,48.0,30.09,WSW,247,0.0,0.0,94,0.00,,---,0.00,0.00,VWS V14.01,2013-08-06 05:16:00,
2013-08-06 01:21:00,49.6,48.0,30.09,WSW,247,0.0,0.0,94,0.00,,---,0.00,0.00,VWS V14.01,2013-08-06 05:21:00,
2013-08-06 01:26:00,49.5,48.1,30.09,WSW,247,0.0,0.0,95,0.00,,---,0.00,0.00,VWS V14.01,2013-08-06 05:26:00,
2013-08-06 01:30:00,50.7,48.8,30.09,WSW,247,0.0,0.0,93,0.00,,---,0.00,0.00,VWS V14.01,2013-08-06 05:30:00,
2013-08-06 01:31:00,49.5,48.1,30.09,WSW,247,0.0,0.0,95,0.00,,---,0.00,0.00,VWS V14.01,2013-08-06 05:31:00,
2013-08-06 01:36:00,49.4,48.0,30.09,WSW,247,0.0,0.0,95,0.00,,---,0.00,0.00,VWS V14.01,2013-08-06 05:36:00,
2013-08-06 01:41:00,49.4,48.0,30.09,WSW,247,0.0,0.0,95,0.00,,---,0.00,0.00,VWS V14.01,2013-08-06 05:41:00,
2013-08-06 01:46:00,49.4,48.0,30.09,WSW,247,0.0,0.0,95,0.00,,---,0.00,0.00,VWS V14.01,2013-08-06 05:46:00,
2013-08-06 01:51:00,49.4,48.0,30.09,WSW,247,0.0,0.0,95,0.00,,---,0.00,0.00,VWS V14.01,2013-08-06 05:51:00,
2013-08-06 01:56:00,49.2,47.8,30.09,WSW,247,0.0,0.0,95,0.00,,---,0.00,0.00,VWS V14.01,2013-08-06 05:56:00,
2013-08-06 02:00:00,49.9,48.2,30.09,WSW,247,0.0,0.0,94,0.00,,---,0.00,0.00,VWS V14.01,2013-08-06 06:00:00,
2013-08-06 02:01:00,49.0,47.6,30.09,WSW,247,0.0,0.0,95,0.00,,---,0.00,0.00,VWS V14.01,2013-08-06 06:01:00,
2013-08-06 02:06:00,48.8,47.4,30.09,WSW,247,0.0,0.0,95,0.00,,---,0.00,0.00,VWS V14.01,2013-08-06 06:06:00,
2013-08-06 02:11:00,48.7,47.3,30.09,WSW,247,0.0,0.0,95,0.00,,---,0.00,0.00,VWS V14.01,2013-08-06 06:11:00,
2013-08-06 02:16:00,48.7,47.3,30.09,WSW,247,0.0,0.0,95,0.00,,---,0.00,0.00,VWS V14.01,2013-08-06 06:16:00,
2013-08-06 02:21:00,48.6,47.2,30.09,WSW,247,0.0,0.0,95,0.00,,---,0.00,0.00,VWS V14.01,2013-08-06 06:21:00,
2013-08-06 02:26:00,48.5,47.1,30.09,WSW,247,0.0,0.0,95,0.00,,---,0.00,0.00,VWS V14.01,2013-08-06 06:26:00,
2013-08-06 02:30:00,49.5,48.1,30.09,WSW,247,0.0,0.0,95,0.00,,---,0.00,0.00,VWS V14.01,2013-08-06 06:30:00,
2013-08-06 02:31:00,48.5,47.1,30.09,WSW,247,0.0,0.0,95,0.00,,---,0.00,0.00,VWS V14.01,2013-08-06 06:31:00,
2013-08-06 02:36:00,48.3,46.9,30.09,WSW,247,0.0,0.0,95,0.00,,---,0.00,0.00,VWS V14.01,2013-08-06 06:36:00,
2013-08-06 02:41:00,48.3,46.9,30.09,WSW,247,0.0,0.0,95,0.00,,---,0.00,0.00,VWS V14.01,2013-08-06 06:41:00,
2013-08-06 02:46:00,48.1,46.7,30.09,WSW,247,0.0,0.0,95,0.00,,---,0.00,0.00,VWS V14.01,2013-08-06 06:46:00,
2013-08-06 02:51:00,48.1,46.7,30.09,WSW,247,0.0,0.0,95,0.00,,---,0.00,0.00,VWS V14.01,2013-08-06 06:51:00,
2013-08-06 02:56:00,48.0,46.6,30.09,WSW,247,0.0,0.0,95,0.00,,---,0.00,0.00,VWS V14.01,2013-08-06 06:56:00,
2013-08-06 03:00:00,49.1,47.7,30.09,WSW,247,0.0,0.0,95,0.00,,---,0.00,0.00,VWS V14.01,2013-08-06 07:00:00,
2013-08-06 03:01:00,48.0,46.9,30.10,WSW,247,0.0,0.0,96,0.00,,---,0.00,0.00,VWS V14.01,2013-08-06 07:01:00,
2013-08-06 03:06:00,47.9,46.8,30.10,WSW,247,0.0,0.0,96,0.00,,---,0.00,0.00,VWS V14.01,2013-08-06 07:06:00,
2013-08-06 03:11:00,47.9,46.8,30.10,WSW,247,0.0,0.0,96,0.00,,---,0.00,0.00,VWS V14.01,2013-08-06 07:11:00,
2013-08-06 03:16:00,47.9,46.8,30.10,WSW,247,0.0,0.0,96,0.00,,---,0.00,0.00,VWS V14.01,2013-08-06 07:16:00,
2013-08-06 03:21:00,47.8,46.7,30.10,WSW,247,0.0,0.0,96,0.00,,---,0.00,0.00,VWS V14.01,2013-08-06 07:21:00,
2013-08-06 03:26:00,47.7,46.6,30.10,WSW,247,0.0,0.0,96,0.00,,---,0.00,0.00,VWS V14.01,2013-08-06 07:26:00,
2013-08-06 03:30:00,48.5,47.1,30.09,WSW,247,0.0,0.0,95,0.00,,---,0.00,0.00,VWS V14.01,2013-08-06 07:30:00,
2013-08-06 03:31:00,47.7,46.6,30.10,WSW,247,0.0,0.0,96,0.00,,---,0.00,0.00,VWS V14.01,2013-08-06 07:31:00,
2013-08-06 03:36:00,47.9,46.8,30.10,WSW,247,0.0,0.0,96,0.00,,---,0.00,0.00,VWS V14.01,2013-08-06 07:36:00,
2013-08-06 03:41:00,48.1,47.0,30.10,WSW,247,0.0,0.0,96,0.00,,---,0.00,0.00,VWS V14.01,2013-08-06 07:41:00,
2013-08-06 03:46:00,48.3,47.2,30.10,WSW,247,0.0,0.0,96,0.00,,---,0.00,0.00,VWS V14.01,2013-08-06 07:46:00,
2013-08-06 03:51:00,48.5,47.4,30.10,WSW,247,0.0,0.0,96,0.00,,---,0.00,0.00,VWS V14.01,2013-08-06 07:51:00,
2013-08-06 03:56:00,48.3,47.2,30.10,WSW,247,0.0,0.0,96,0.00,,---,0.00,0.00,VWS V14.01,2013-08-06 07:56:00,
2013-08-06 04:00:00,48.0,46.9,30.10,WSW,247,0.0,0.0,96,0.00,,---,0.00,0.00,VWS V14.01,2013-08-06 08:00:00,
2013-08-06 04:01:00,48.2,47.1,30.10,WSW,247,0.0,0.0,96,0.00,,---,0.00,0.00,VWS V14.01,2013-08-06 08:01:00,
2013-08-06 04:06:00,48.1,47.0,30.10,WSW,247,0.0,0.0,96,0.00,,---,0.00,0.00,VWS V14.01,2013-08-06 08:06:00,
2013-08-06 04:11:00,47.9,46.8,30.10,WSW,247,0.0,0.0,96,0.00,,---,0.00,0.00,VWS V14.01,2013-08-06 08:11:00,
2013-08-06 04:16:00,47.8,46.7,30.10,WSW,247,0.0,0.0,96,0.00,,---,0.00,0.00,VWS V14.01,2013-08-06 08:16:00,
2013-08-06 04:21:00,47.8,46.7,30.10,WSW,247,0.0,0.0,96,0.00,,---,0.00,0.00,VWS V14.01,2013-08-06 08:21:00,
2013-08-06 04:26:00,47.8,46.7,30.10,WSW,247,0.0,0.0,96,0.00,,---,0.00,0.00,VWS V14.01,2013-08-06 08:26:00,
2013-08-06 04:30:00,47.7,46.6,30.10,WSW,247,0.0,0.0,96,0.00,,---,0.00,0.00,VWS V14.01,2013-08-06 08:30:00,
2013-08-06 04:31:00,48.0,46.9,30.10,WSW,247,0.0,0.0,96,0.00,,---,0.00,0.00,VWS V14.01,2013-08-06 08:31:00,
2013-08-06 04:36:00,48.7,47.9,30.10,WSW,247,0.0,0.0,97,0.00,,---,0.00,0.00,VWS V14.01,2013-08-06 08:36:00,
2013-08-06 04:41:00,49.1,48.3,30.10,WSW,247,0.0,0.0,97,0.00,,---,0.00,0.00,VWS V14.01,2013-08-06 08:41:00,
2013-08-06 04:46:00,49.2,48.4,30.10,WSW,247,0.0,0.0,97,0.00,,---,0.00,0.00,VWS V14.01,2013-08-06 08:46:00,
2013-08-06 04:51:00,49.1,48.0,30.11,WSW,247,0.0,0.0,96,0.00,,---,0.00,0.00,VWS V14.01,2013-08-06 08:51:00,
2013-08-06 04:56:00,49.1,48.0,30.11,WSW,247,0.0,0.0,96,0.00,,---,0.00,0.00,VWS V14.01,2013-08-06 08:56:00,
2013-08-06 05:00:00,48.2,47.1,30.10,WSW,247,0.0,0.0,96,0.00,,---,0.00,0.00,VWS V14.01,2013-08-06 09:00:00,
2013-08-06 05:01:00,49.0,47.9,30.11,WSW,247,0.0,0.0,96,0.00,,---,0.00,0.00,VWS V14.01,2013-08-06 09:01:00,
2013-08-06 05:06:00,49.1,48.0,30.11,WSW,247,0.0,0.0,96,0.00,,---,0.00,0.00,VWS V14.01,2013-08-06 09:06:00,
2013-08-06 05:11:00,49.3,48.5,30.11,WSW,247,0.0,0.0,97,0.00,,---,0.00,0.00,VWS V14.01,2013-08-06 09:11:00,
2013-08-06 05:16:00,49.5,48.7,30.11,WSW,247,0.0,0.0,97,0.00,,---,0.00,0.00,VWS V14.01,2013-08-06 09:16:00,
2013-08-06 05:21:00,49.5,48.7,30.11,WSW,247,0.0,0.0,97,0.00,,---,0.00,0.00,VWS V14.01,2013-08-06 09:21:00,
2013-08-06 05:26:00,49.5,48.4,30.11,WSW,247,0.0,0.0,96,0.00,,---,0.00,0.00,VWS V14.01,2013-08-06 09:26:00,
2013-08-06 05:30:00,47.9,46.8,30.10,WSW,247,0.0,0.0,96,0.00,,---,0.00,0.00,VWS V14.01,2013-08-06 09:30:00,
2013-08-06 05:31:00,49.4,48.3,30.12,WSW,247,0.0,0.0,96,0.00,,---,0.00,0.00,VWS V14.01,2013-08-06 09:31:00,
2013-08-06 05:36:00,49.4,48.3,30.12,WSW,247,0.0,0.0,96,0.00,,---,0.00,0.00,VWS V14.01,2013-08-06 09:36:00,
2013-08-06 05:41:00,49.3,48.2,30.12,WSW,247,0.0,0.0,96,0.00,,---,0.00,0.00,VWS V14.01,2013-08-06 09:41:00,
2013-08-06 05:46:00,49.4,48.3,30.12,WSW,247,0.0,0.0,96,0.00,,---,0.00,0.00,VWS V14.01,2013-08-06 09:46:00,
2013-08-06 05:51:00,49.4,48.3,30.12,WSW,247,0.0,0.0,96,0.00,,---,0.00,0.00,VWS V14.01,2013-08-06 09:51:00,
2013-08-06 05:56:00,49.3,48.2,30.12,WSW,247,0.0,0.0,96,0.00,,---,0.00,0.00,VWS V14.01,2013-08-06 09:56:00,
2013-08-06 06:00:00,49.0,47.9,30.11,WSW,247,0.0,0.0,96,0.00,,---,0.00,0.00,VWS V14.01,2013-08-06 10:00:00,
2013-08-06 06:01:00,49.3,48.2,30.12,WSW,247,0.0,0.0,96,0.00,,---,0.00,0.00,VWS V14.01,2013-08-06 10:01:00,
2013-08-06 06:06:00,49.3,48.2,30.12,WSW,247,0.0,0.0,96,0.00,,---,0.00,5.00,VWS V14.01,2013-08-06 10:06:00,
2013-08-06 06:11:00,49.3,48.2,30.12,WSW,247,0.0,0.0,96,0.00,,---,0.00,7.00,VWS V14.01,2013-08-06 10:11:00,
2013-08-06 06:16:00,49.2,48.1,30.12,WSW,247,0.0,0.0,96,0.00,,---,0.00,9.00,VWS V14.01,2013-08-06 10:16:00,
2013-08-06 06:21:00,49.3,48.2,30.13,WSW,247,0.0,0.0,96,0.00,,---,0.00,12.00,VWS V14.01,2013-08-06 10:21:00,
2013-08-06 06:26:00,49.4,48.3,30.13,WSW,247,0.0,1.0,96,0.00,,---,0.00,19.00,VWS V14.01,2013-08-06 10:26:00,
2013-08-06 06:30:00,49.4,48.3,30.12,WSW,247,0.0,0.0,96,0.00,,---,0.00,0.00,VWS V14.01,2013-08-06 10:30:00,
2013-08-06 06:31:00,49.5,48.4,30.13,WSW,247,0.0,0.0,96,0.00,,---,0.00,26.00,VWS V14.01,2013-08-06 10:31:00,
2013-08-06 06:36:00,49.7,48.6,30.13,WSW,247,0.0,0.0,96,0.00,,---,0.00,30.00,VWS V14.01,2013-08-06 10:36:00,
2013-08-06 06:41:00,49.7,48.6,30.13,WSW,247,0.0,0.0,96,0.00,,---,0.00,51.00,VWS V14.01,2013-08-06 10:41:00,
2013-08-06 06:46:00,49.9,48.8,30.13,WSW,247,0.0,0.0,96,0.00,,---,0.00,72.00,VWS V14.01,2013-08-06 10:46:00,
2013-08-06 06:51:00,50.4,49.3,30.13,WSW,247,0.0,0.0,96,0.00,,---,0.00,116.00,VWS V14.01,2013-08-06 10:51:00,
2013-08-06 06:56:00,51.2,50.1,30.13,WSW,247,0.0,3.0,96,0.00,,---,0.00,83.00,VWS V14.01,2013-08-06 10:56:00,
2013-08-06 07:00:00,49.3,48.2,30.12,WSW,247,0.0,0.0,96,0.00,,---,0.00,0.00,VWS V14.01,2013-08-06 11:00:00,
2013-08-06 07:01:00,51.6,50.5,30.13,WSW,247,0.0,0.0,96,0.00,,---,0.00,139.00,VWS V14.01,2013-08-06 11:01:00,
2013-08-06 07:06:00,52.2,50.8,30.13,WSW,247,0.0,0.0,95,0.00,,---,0.00,118.00,VWS V14.01,2013-08-06 11:06:00,
2013-08-06 07:11:00,52.8,51.4,30.14,WSW,247,0.0,0.0,95,0.00,,---,0.00,137.00,VWS V14.01,2013-08-06 11:11:00,
2013-08-06 07:16:00,53.4,51.7,30.14,WSW,247,0.0,0.0,94,0.00,,---,0.00,204.00,VWS V14.01,2013-08-06 11:16:00,
2013-08-06 07:21:00,54.2,52.2,30.14,WSW,247,0.0,0.0,93,0.00,,---,0.00,95.00,VWS V14.01,2013-08-06 11:21:00,
2013-08-06 07:26:00,54.9,52.6,30.14,WSW,247,0.0,0.0,92,0.00,,---,0.00,239.00,VWS V14.01,2013-08-06 11:26:00,
2013-08-06 07:30:00,49.5,48.4,30.13,WSW,247,0.0,1.0,96,0.00,,---,0.00,25.00,VWS V14.01,2013-08-06 11:30:00,
2013-08-06 07:31:00,55.8,53.2,30.14,WSW,247,0.0,0.0,91,0.00,,---,0.00,185.00,VWS V14.01,2013-08-06 11:31:00,
2013-08-06 07:36:00,56.6,53.7,30.14,WSW,247,0.0,0.0,90,0.00,,---,0.00,258.00,VWS V14.01,2013-08-06 11:36:00,
2013-08-06 07:41:00,57.5,54.0,30.14,WSW,247,0.0,0.0,88,0.00,,---,0.00,257.00,VWS V14.01,2013-08-06 11:41:00,
2013-08-06 07:46:00,58.4,54.2,30.14,WSW,247,0.0,1.0,86,0.00,,---,0.00,269.00,VWS V14.01,2013-08-06 11:46:00,
2013-08-06 07:51:00,59.2,54.7,30.14,NE,40,0.0,1.0,85,0.00,,---,0.00,292.00,VWS V14.01,2013-08-06 11:51:00,
2013-08-06 07:56:00,59.9,54.4,30.14,NE,40,0.0,1.0,82,0.00,,---,0.00,308.00,VWS V14.01,2013-08-06 11:56:00,
2013-08-06 08:00:00,51.5,50.4,30.13,WSW,247,0.0,3.0,96,0.00,,---,0.00,137.00,VWS V14.01,2013-08-06 12:00:00,
2013-08-06 08:01:00,60.5,55.0,30.14,ENE,60,0.0,0.0,82,0.00,,---,0.00,325.00,VWS V14.01,2013-08-06 12:01:00,
2013-08-06 08:06:00,61.0,55.1,30.14,ENE,60,0.0,2.0,81,0.00,,---,0.00,338.00,VWS V14.01,2013-08-06 12:06:00,
2013-08-06 08:11:00,61.4,54.8,30.14,ENE,60,0.0,2.0,79,0.00,,---,0.00,353.00,VWS V14.01,2013-08-06 12:11:00,
2013-08-06 08:16:00,61.8,55.2,30.14,ENE,60,0.0,2.0,79,0.00,,---,0.00,369.00,VWS V14.01,2013-08-06 12:16:00,
2013-08-06 08:21:00,62.3,55.0,30.14,ENE,60,0.0,2.0,77,0.00,,---,0.00,388.00,VWS V14.01,2013-08-06 12:21:00,
2013-08-06 08:26:00,62.6,54.9,30.14,ENE,60,0.0,2.0,76,0.00,,---,0.00,401.00,VWS V14.01,2013-08-06 12:26:00,
2013-08-06 08:30:00,55.7,53.1,30.14,WSW,247,0.0,1.0,91,0.00,,---,0.00,185.00,VWS V14.01,2013-08-06 12:30:00,
2013-08-06 08:31:00,62.9,55.2,30.14,ENE,60,0.0,0.0,76,0.00,,---,0.00,417.00,VWS V14.01,2013-08-06 12:31:00,
2013-08-06 08:36:00,63.4,56.1,30.14,ENE,60,0.0,0.0,77,0.00,,---,0.00,429.00,VWS V14.01,2013-08-06 12:36:00,
2013-08-06 08:41:00,63.8,55.0,30.14,NE,47,1.0,3.0,73,0.00,,---,0.00,443.00,VWS V14.01,2013-08-06 12:41:00,
2013-08-06 08:46:00,64.1,55.3,30.14,NE,47,0.0,3.0,73,0.00,,---,0.00,438.00,VWS V14.01,2013-08-06 12:46:00,
2013-08-06 08:51:00,64.7,55.5,30.14,NNE,25,0.0,3.0,72,0.00,,---,0.00,455.00,VWS V14.01,2013-08-06 12:51:00,
2013-08-06 08:56:00,65.2,55.6,30.14,NNE,25,0.0,3.0,71,0.00,,---,0.00,490.00,VWS V14.01,2013-08-06 12:56:00,
2013-08-06 09:00:00,60.4,54.9,30.14,ENE,60,0.0,1.0,82,0.00,,---,0.00,323.00,VWS V14.01,2013-08-06 13:00:00,
2013-08-06 09:01:00,65.6,55.6,30.14,North,5,0.0,0.0,70,0.00,,---,0.00,492.00,VWS V14.01,2013-08-06 13:01:00,
2013-08-06 09:06:00,65.9,55.5,30.14,North,5,0.0,3.0,69,0.00,,---,0.00,501.00,VWS V14.01,2013-08-06 13:06:00,
2013-08-06 09:11:00,66.4,56.3,30.14,NNE,22,0.0,3.0,70,0.00,,---,0.00,540.00,VWS V14.01,2013-08-06 13:11:00,
2013-08-06 09:16:00,67.1,55.4,30.14,SE,140,0.0,3.0,66,0.00,,---,0.00,541.00,VWS V14.01,2013-08-06 13:16:00,
2013-08-06 09:21:00,66.9,55.6,30.14,NE,43,0.0,3.0,67,0.00,,---,0.00,533.00,VWS V14.01,2013-08-06 13:21:00,
2013-08-06 09:26:00,67.4,55.7,30.14,NE,49,0.0,3.0,66,0.00,,---,0.00,557.00,VWS V14.01,2013-08-06 13:26:00,
2013-08-06 09:30:00,62.8,54.8,30.14,ENE,60,0.0,2.0,75,0.00,,---,0.00,415.00,VWS V14.01,2013-08-06 13:30:00,
2013-08-06 09:31:00,67.6,55.4,30.14,ESE,113,3.0,3.0,65,0.00,,---,0.00,582.00,VWS V14.01,2013-08-06 13:31:00,
2013-08-06 09:36:00,68.0,55.4,30.14,NE,53,0.0,3.0,64,0.00,,---,0.00,596.00,VWS V14.01,2013-08-06 13:36:00,
2013-08-06 09:41:00,68.5,56.7,30.14,ESE,107,0.0,3.0,66,0.00,,---,0.00,606.00,VWS V14.01,2013-08-06 13:41:00,
2013-08-06 09:45:00,69.3,56.2,30.14,ESE,107,0.0,3.0,63,0.00,,---,0.00,622.00,VWS V14.01,2013-08-06 13:45:00,
2013-08-06 09:50:00,69.8,57.5,30.14,SE,127,0.0,5.0,65,0.00,,---,0.00,633.00,VWS V14.01,2013-08-06 13:50:00,
2013-08-06 09:55:00,70.0,57.7,30.14,East,86,0.0,5.0,65,0.00,,---,0.00,647.00,VWS V14.01,2013-08-06 13:55:00,
2013-08-06 10:00:00,70.3,58.0,30.14,ESE,109,0.0,0.0,65,0.00,,---,0.00,657.00,VWS V14.01,2013-08-06 14:00:00,
2013-08-06 10:05:00,70.3,58.0,30.13,ESE,122,0.0,4.0,65,0.00,,---,0.00,671.00,VWS V14.01,2013-08-06 14:05:00,
2013-08-06 10:10:00,70.7,57.9,30.13,ESE,107,0.0,4.0,64,0.00,,---,0.00,682.00,VWS V14.01,2013-08-06 14:10:00,
2013-08-06 10:15:00,70.8,58.0,30.13,SE,136,0.0,4.0,64,0.00,,---,0.00,691.00,VWS V14.01,2013-08-06 14:15:00,
2013-08-06 10:20:00,71.1,57.9,30.14,SE,134,0.0,5.0,63,0.00,,---,0.00,705.00,VWS V14.01,2013-08-06 14:20:00,
2013-08-06 10:25:00,71.3,57.6,30.14,ESE,110,0.0,5.0,62,0.00,,---,0.00,714.00,VWS V14.01,2013-08-06 14:25:00,
2013-08-06 10:30:00,71.6,57.9,30.14,NE,53,0.0,0.0,62,0.00,,---,0.00,724.00,VWS V14.01,2013-08-06 14:30:00,
2013-08-06 10:35:00,71.9,59.5,30.14,ESE,117,0.0,4.0,65,0.00,,---,0.00,724.00,VWS V14.01,2013-08-06 14:35:00,
2013-08-06 10:40:00,72.3,56.7,30.14,SE,128,2.0,4.0,58,0.00,,---,0.00,745.00,VWS V14.01,2013-08-06 14:40:00,
2013-08-06 10:45:00,72.6,56.5,30.14,NE,37,0.0,4.0,57,0.00,,---,0.00,756.00,VWS V14.01,2013-08-06 14:45:00,
2013-08-06 10:50:00,73.0,55.9,30.13,NE,37,0.0,4.0,55,0.00,,---,0.00,768.00,VWS V14.01,2013-08-06 14:50:00,
2013-08-06 10:55:00,73.3,56.7,30.13,ESE,102,0.0,4.0,56,0.00,,---,0.00,773.00,VWS V14.01,2013-08-06 14:55:00,
2013-08-06 11:00:00,73.6,57.4,30.13,ENE,71,0.0,0.0,57,0.00,,---,0.00,782.00,VWS V14.01,2013-08-06 15:00:00,
2013-08-06 11:05:00,74.1,56.9,30.13,ESE,109,0.0,4.0,55,0.00,,---,0.00,791.00,VWS V14.01,2013-08-06 15:05:00,
2013-08-06 11:10:00,74.5,55.2,30.13,East,92,3.0,7.0,51,0.00,,---,0.00,800.00,VWS V14.01,2013-08-06 15:10:00,
2013-08-06 11:15:00,73.9,54.7,30.13,SSE,149,1.0,7.0,51,0.00,,---,0.00,803.00,VWS V14.01,2013-08-06 15:15:00,
2013-08-06 11:20:00,73.9,57.2,30.13,East,96,0.0,7.0,56,0.00,,---,0.00,821.00,VWS V14.01,2013-08-06 15:20:00,
2013-08-06 11:25:00,74.3,56.6,30.13,NE,51,1.0,7.0,54,0.00,,---,0.00,830.00,VWS V14.01,2013-08-06 15:25:00,
2013-08-06 11:30:00,75.1,59.3,30.13,East,98,5.0,5.0,58,0.00,,---,0.00,842.00,VWS V14.01,2013-08-06 15:30:00,
2013-08-06 11:35:00,75.4,58.1,30.13,East,96,0.0,5.0,55,0.00,,---,0.00,854.00,VWS V14.01,2013-08-06 15:35:00,
2013-08-06 11:40:00,75.7,57.4,30.13,ESE,115,0.0,5.0,53,0.00,,---,0.00,868.00,VWS V14.01,2013-08-06 15:40:00,
2013-08-06 11:45:00,75.6,56.8,30.14,West,264,0.0,5.0,52,0.00,,---,0.00,888.00,VWS V14.01,2013-08-06 15:45:00,
2013-08-06 11:50:00,75.4,56.6,30.14,West,265,0.0,5.0,52,0.00,,---,0.00,895.00,VWS V14.01,2013-08-06 15:50:00,
2013-08-06 11:55:00,75.8,57.5,30.14,West,264,0.0,5.0,53,0.00,,---,0.00,914.00,VWS V14.01,2013-08-06 15:55:00,
2013-08-06 12:00:00,76.1,56.1,30.14,NW,311,0.0,3.0,50,0.00,,---,0.00,954.00,VWS V14.01,2013-08-06 16:00:00,
2013-08-06 12:05:00,76.0,55.5,30.14,NW,313,1.0,3.0,49,0.00,,---,0.00,983.00,VWS V14.01,2013-08-06 16:05:00,
2013-08-06 12:10:00,76.0,57.7,30.14,NW,313,1.0,3.0,53,0.00,,---,0.00,905.00,VWS V14.01,2013-08-06 16:10:00,
2013-08-06 12:15:00,76.0,57.1,30.14,ESE,108,2.0,4.0,52,0.00,,---,0.00,949.00,VWS V14.01,2013-08-06 16:15:00,
2013-08-06 12:20:00,75.9,55.4,30.14,ESE,108,0.0,4.0,49,0.00,,---,0.00,229.00,VWS V14.01,2013-08-06 16:20:00,
2013-08-06 12:25:00,75.7,57.9,30.14,ESE,108,0.0,4.0,54,0.00,,---,0.00,951.00,VWS V14.01,2013-08-06 16:25:00,
2013-08-06 12:30:00,76.2,57.8,30.14,East,91,0.0,0.0,53,0.00,,---,0.00,932.00,VWS V14.01,2013-08-06 16:30:00,
2013-08-06 12:35:00,76.7,54.4,30.13,SE,138,3.0,10.0,46,0.00,,---,0.00,969.00,VWS V14.01,2013-08-06 16:35:00,
2013-08-06 12:40:00,76.7,56.1,30.13,West,260,1.0,10.0,49,0.00,,---,0.00,965.00,VWS V14.01,2013-08-06 16:40:00,
2013-08-06 12:45:00,76.2,54.5,30.13,ENE,71,1.0,10.0,47,0.00,,---,0.00,160.00,VWS V14.01,2013-08-06 16:45:00,
2013-08-06 12:50:00,75.5,54.5,30.13,West,273,0.0,10.0,48,0.00,,---,0.00,176.00,VWS V14.01,2013-08-06 16:50:00,
2013-08-06 12:55:00,75.7,53.5,30.13,East,96,1.0,10.0,46,0.00,,---,0.00,986.00,VWS V14.01,2013-08-06 16:55:00,
2013-08-06 13:00:00,76.2,56.2,30.13,West,267,7.0,7.0,50,0.00,,---,0.00,977.00,VWS V14.01,2013-08-06 17:00:00,
2013-08-06 13:05:00,76.7,55.0,30.14,WSW,250,0.0,7.0,47,0.00,,---,0.00,976.00,VWS V14.01,2013-08-06 17:05:00,
2013-08-06 13:10:00,76.9,57.4,30.14,NE,38,0.0,7.0,51,0.00,,---,0.00,928.00,VWS V14.01,2013-08-06 17:10:00,
2013-08-06 13:15:00,76.8,54.5,30.13,North,360,0.0,7.0,46,0.00,,---,0.00,937.00,VWS V14.01,2013-08-06 17:15:00,
2013-08-06 13:20:00,77.1,57.0,30.13,NW,310,0.0,7.0,50,0.00,,---,0.00,816.00,VWS V14.01,2013-08-06 17:20:00,
2013-08-06 13:25:00,77.5,56.9,30.13,East,96,0.0,7.0,49,0.00,,---,0.00,962.00,VWS V14.01,2013-08-06 17:25:00,
2013-08-06 13:27:00,77.6,58.1,30.13,ENE,70,0.0,7.0,51,0.00,,---,0.00,962.00,VWS V14.01,2013-08-06 17:27:00,
2013-08-06 13:30:00,76.2,56.8,30.14,East,99,0.0,4.0,51,0.00,,---,0.00,932.00,VWS V14.01,2013-08-06 17:30:00,
2013-08-06 13:32:00,77.8,57.7,30.13,SE,132,3.0,4.0,50,0.00,,---,0.00,960.00,VWS V14.01,2013-08-06 17:32:00,
2013-08-06 13:37:00,77.8,57.1,30.12,West,274,2.0,4.0,49,0.00,,---,0.00,939.00,VWS V14.01,2013-08-06 17:37:00,
2013-08-06 13:42:00,77.7,58.2,30.12,WSW,254,1.0,5.0,51,0.00,,---,0.00,902.00,VWS V14.01,2013-08-06 17:42:00,
2013-08-06 13:47:00,77.9,56.1,30.12,East,90,3.0,5.0,47,0.00,,---,0.00,930.00,VWS V14.01,2013-08-06 17:47:00,
2013-08-06 13:52:00,78.4,56.5,30.12,ESE,115,0.0,5.0,47,0.00,,---,0.00,810.00,VWS V14.01,2013-08-06 17:52:00,
2013-08-06 13:57:00,78.2,56.3,30.12,West,278,3.0,5.0,47,0.00,,---,0.00,824.00,VWS V14.01,2013-08-06 17:57:00,
2013-08-06 14:00:00,76.2,55.7,30.13,WNW,291,2.0,10.0,49,0.00,,---,0.00,977.00,VWS V14.01,2013-08-06 18:00:00,
2013-08-06 14:02:00,77.9,58.9,30.12,WNW,294,0.0,0.0,52,0.00,,---,0.00,912.00,VWS V14.01,2013-08-06 18:02:00,
2013-08-06 14:07:00,78.3,58.7,30.11,East,99,3.0,5.0,51,0.00,,---,0.00,939.00,VWS V14.01,2013-08-06 18:07:00,
2013-08-06 14:12:00,78.4,57.1,30.12,West,274,2.0,5.0,48,0.00,,---,0.00,935.00,VWS V14.01,2013-08-06 18:12:00,
2013-08-06 14:17:00,78.2,58.1,30.12,WNW,302,0.0,5.0,50,0.00,,---,0.00,677.00,VWS V14.01,2013-08-06 18:17:00,
2013-08-06 14:22:00,78.6,58.4,30.12,ESE,117,1.0,5.0,50,0.00,,---,0.00,923.00,VWS V14.01,2013-08-06 18:22:00,
2013-08-06 14:27:00,78.7,57.4,30.12,NW,309,2.0,5.0,48,0.00,,---,0.00,889.00,VWS V14.01,2013-08-06 18:27:00,
2013-08-06 14:30:00,77.8,58.2,30.13,ESE,113,0.0,7.0,51,0.00,,---,0.00,956.00,VWS V14.01,2013-08-06 18:30:00,
2013-08-06 14:32:00,78.9,57.6,30.12,SSE,155,3.0,3.0,48,0.00,,---,0.00,900.00,VWS V14.01,2013-08-06 18:32:00,
2013-08-06 14:37:00,79.0,57.7,30.11,West,278,0.0,5.0,48,0.00,,---,0.00,879.00,VWS V14.01,2013-08-06 18:37:00,
2013-08-06 14:42:00,79.2,58.4,30.11,SSE,165,0.0,5.0,49,0.00,,---,0.00,828.00,VWS V14.01,2013-08-06 18:42:00,
2013-08-06 14:47:00,79.6,59.3,30.11,ESE,105,4.0,5.0,50,0.00,,---,0.00,847.00,VWS V14.01,2013-08-06 18:47:00,
2013-08-06 14:52:00,79.3,57.9,30.11,ESE,117,0.0,5.0,48,0.00,,---,0.00,782.00,VWS V14.01,2013-08-06 18:52:00,
2013-08-06 14:57:00,78.8,58.0,30.11,NW,324,0.0,5.0,49,0.00,,---,0.00,819.00,VWS V14.01,2013-08-06 18:57:00,
2013-08-06 15:00:00,77.9,58.3,30.12,WNW,294,0.0,5.0,51,0.00,,---,0.00,870.00,VWS V14.01,2013-08-06 19:00:00,
2013-08-06 15:02:00,78.8,55.7,30.11,SW,229,0.0,0.0,45,0.00,,---,0.00,807.00,VWS V14.01,2013-08-06 19:02:00,
2013-08-06 15:07:00,79.0,55.9,30.11,West,281,3.0,6.0,45,0.00,,---,0.00,805.00,VWS V14.01,2013-08-06 19:07:00,
2013-08-06 15:12:00,79.0,55.2,30.11,ESE,117,1.0,9.0,44,0.00,,---,0.00,826.00,VWS V14.01,2013-08-06 19:12:00,
2013-08-06 15:17:00,77.9,55.5,30.11,WNW,292,2.0,9.0,46,0.00,,---,0.00,171.00,VWS V14.01,2013-08-06 19:17:00,
2013-08-06 15:22:00,77.6,56.4,30.11,WNW,300,6.0,9.0,48,0.00,,---,0.00,796.00,VWS V14.01,2013-08-06 19:22:00,
2013-08-06 15:27:00,78.0,56.7,30.11,West,272,2.0,9.0,48,0.00,,---,0.00,770.00,VWS V14.01,2013-08-06 19:27:00,
2013-08-06 15:30:00,78.8,60.2,30.12,SE,130,0.0,5.0,53,0.00,,---,0.00,916.00,VWS V14.01,2013-08-06 19:30:00,
2013-08-06 15:32:00,78.4,57.7,30.11,WNW,290,2.0,3.0,49,0.00,,---,0.00,758.00,VWS V14.01,2013-08-06 19:32:00,
2013-08-06 15:37:00,78.9,57.6,30.11,East,96,0.0,4.0,48,0.00,,---,0.00,747.00,VWS V14.01,2013-08-06 19:37:00,
2013-08-06 15:42:00,78.9,56.4,30.11,West,281,0.0,5.0,46,0.00,,---,0.00,722.00,VWS V14.01,2013-08-06 19:42:00,
2013-08-06 15:47:00,78.9,56.4,30.11,WNW,291,0.0,6.0,46,0.00,,---,0.00,724.00,VWS V14.01,2013-08-06 19:47:00,
2013-08-06 15:52:00,78.8,57.5,30.11,NW,304,0.0,6.0,48,0.00,,---,0.00,707.00,VWS V14.01,2013-08-06 19:52:00,
2013-08-06 15:57:00,79.1,58.3,30.11,West,281,0.0,6.0,49,0.00,,---,0.00,717.00,VWS V14.01,2013-08-06 19:57:00,
2013-08-06 16:00:00,78.8,57.5,30.11,SW,234,0.0,5.0,48,0.00,,---,0.00,809.00,VWS V14.01,2013-08-06 20:00:00,
2013-08-06 16:02:00,79.4,58.0,30.11,WNW,287,0.0,1.0,48,0.00,,---,0.00,731.00,VWS V14.01,2013-08-06 20:02:00,
2013-08-06 16:07:00,79.3,56.1,30.11,WNW,298,0.0,4.0,45,0.00,,---,0.00,703.00,VWS V14.01,2013-08-06 20:07:00,
2013-08-06 16:12:00,79.1,57.8,30.11,SE,143,0.0,4.0,48,0.00,,---,0.00,715.00,VWS V14.01,2013-08-06 20:12:00,
2013-08-06 16:17:00,79.4,55.0,30.11,WNW,295,0.0,4.0,43,0.00,,---,0.00,700.00,VWS V14.01,2013-08-06 20:17:00,
2013-08-06 16:22:00,78.9,55.8,30.11,NNE,19,0.0,4.0,45,0.00,,---,0.00,701.00,VWS V14.01,2013-08-06 20:22:00,
2013-08-06 16:27:00,78.9,54.5,30.11,NE,46,0.0,4.0,43,0.00,,---,0.00,671.00,VWS V14.01,2013-08-06 20:27:00,
2013-08-06 16:30:00,78.2,58.6,30.11,ESE,119,0.0,9.0,51,0.00,,---,0.00,768.00,VWS V14.01,2013-08-06 20:30:00,
2013-08-06 16:32:00,79.0,54.6,30.11,SSE,165,0.0,0.0,43,0.00,,---,0.00,633.00,VWS V14.01,2013-08-06 20:32:00,
2013-08-06 16:37:00,79.1,56.6,30.11,ENE,65,1.0,4.0,46,0.00,,---,0.00,582.00,VWS V14.01,2013-08-06 20:37:00,
2013-08-06 16:42:00,79.0,54.6,30.11,SE,139,0.0,4.0,43,0.00,,---,0.00,555.00,VWS V14.01,2013-08-06 20:42:00,
2013-08-06 16:47:00,79.1,54.1,30.11,West,277,0.0,4.0,42,0.00,,---,0.00,526.00,VWS V14.01,2013-08-06 20:47:00,
2013-08-06 16:52:00,78.8,55.1,30.11,WNW,300,0.0,5.0,44,0.00,,---,0.00,510.00,VWS V14.01,2013-08-06 20:52:00,
2013-08-06 16:57:00,78.4,55.3,30.11,NW,315,0.0,5.0,45,0.00,,---,0.00,494.00,VWS V14.01,2013-08-06 20:57:00,
2013-08-06 17:00:00,79.3,57.9,30.11,ESE,115,0.0,6.0,48,0.00,,---,0.00,722.00,VWS V14.01,2013-08-06 21:00:00,
2013-08-06 17:02:00,78.3,55.8,30.11,NW,315,0.0,1.0,46,0.00,,---,0.00,149.00,VWS V14.01,2013-08-06 21:02:00,
2013-08-06 17:07:00,77.7,54.1,30.11,WNW,293,0.0,5.0,44,0.00,,---,0.00,464.00,VWS V14.01,2013-08-06 21:07:00,
2013-08-06 17:12:00,77.6,55.2,30.11,WNW,293,0.0,5.0,46,0.00,,---,0.00,450.00,VWS V14.01,2013-08-06 21:12:00,
2013-08-06 17:17:00,77.9,54.9,30.11,West,262,0.0,5.0,45,0.00,,---,0.00,434.00,VWS V14.01,2013-08-06 21:17:00,
2013-08-06 17:22:00,77.9,55.5,30.11,WNW,286,0.0,5.0,46,0.00,,---,0.00,418.00,VWS V14.01,2013-08-06 21:22:00,
2013-08-06 17:27:00,77.9,54.9,30.11,SSE,157,0.0,6.0,45,0.00,,---,0.00,404.00,VWS V14.01,2013-08-06 21:27:00,
2013-08-06 17:30:00,79.0,55.2,30.11,SSE,165,0.0,4.0,44,0.00,,---,0.00,645.00,VWS V14.01,2013-08-06 21:30:00,
2013-08-06 17:32:00,77.9,55.5,30.11,NW,311,0.0,0.0,46,0.00,,---,0.00,388.00,VWS V14.01,2013-08-06 21:32:00,
2013-08-06 17:37:00,77.9,55.5,30.11,NW,313,0.0,0.0,46,0.00,,---,0.00,371.00,VWS V14.01,2013-08-06 21:37:00,
2013-08-06 17:42:00,78.1,55.0,30.11,NW,313,0.0,0.0,45,0.00,,---,0.00,353.00,VWS V14.01,2013-08-06 21:42:00,
2013-08-06 17:47:00,77.8,53.5,30.11,NW,315,0.0,4.0,43,0.00,,---,0.00,338.00,VWS V14.01,2013-08-06 21:47:00,
2013-08-06 17:52:00,77.7,54.7,30.11,NW,315,0.0,4.0,45,0.00,,---,0.00,315.00,VWS V14.01,2013-08-06 21:52:00,
2013-08-06 17:57:00,77.3,53.7,30.11,NW,315,0.0,4.0,44,0.00,,---,0.00,74.00,VWS V14.01,2013-08-06 21:57:00,
2013-08-06 18:00:00,78.4,55.3,30.11,NW,315,0.0,5.0,45,0.00,,---,0.00,490.00,VWS V14.01,2013-08-06 22:00:00,
2013-08-06 18:02:00,76.9,54.0,30.11,WNW,296,0.0,3.0,45,0.00,,---,0.00,46.00,VWS V14.01,2013-08-06 22:02:00,
2013-08-06 18:07:00,76.6,54.9,30.11,NW,322,0.0,3.0,47,0.00,,---,0.00,62.00,VWS V14.01,2013-08-06 22:07:00,
2013-08-06 18:12:00,76.2,55.7,30.11,NW,322,0.0,3.0,49,0.00,,---,0.00,44.00,VWS V14.01,2013-08-06 22:12:00,
2013-08-06 18:17:00,75.8,55.9,30.11,WNW,300,0.0,3.0,50,0.00,,---,0.00,37.00,VWS V14.01,2013-08-06 22:17:00,
2013-08-06 18:22:00,75.4,54.4,30.11,WNW,300,0.0,3.0,48,0.00,,---,0.00,53.00,VWS V14.01,2013-08-06 22:22:00,
2013-08-06 18:27:00,75.2,54.2,30.11,WNW,300,0.0,3.0,48,0.00,,---,0.00,32.00,VWS V14.01,2013-08-06 22:27:00,
2013-08-06 18:30:00,77.9,54.9,30.11,NW,311,0.0,6.0,45,0.00,,---,0.00,392.00,VWS V14.01,2013-08-06 22:30:00,
2013-08-06 18:32:00,74.9,56.1,30.11,WNW,300,0.0,0.0,52,0.00,,---,0.00,44.00,VWS V14.01,2013-08-06 22:32:00,
2013-08-06 18:37:00,74.7,55.9,30.11,WNW,300,0.0,0.0,52,0.00,,---,0.00,72.00,VWS V14.01,2013-08-06 22:37:00,
2013-08-06 18:42:00,74.6,55.8,30.11,WNW,300,0.0,0.0,52,0.00,,---,0.00,77.00,VWS V14.01,2013-08-06 22:42:00,
2013-08-06 18:47:00,74.5,56.3,30.11,WNW,300,0.0,0.0,53,0.00,,---,0.00,49.00,VWS V14.01,2013-08-06 22:47:00,
2013-08-06 18:52:00,74.3,57.1,30.11,WNW,300,0.0,0.0,55,0.00,,---,0.00,54.00,VWS V14.01,2013-08-06 22:52:00,
2013-08-06 18:57:00,73.8,59.1,30.12,WNW,300,0.0,0.0,60,0.00,,---,0.00,26.00,VWS V14.01,2013-08-06 22:57:00,
2013-08-06 19:00:00,77.1,55.3,30.11,WNW,296,2.0,4.0,47,0.00,,---,0.00,53.00,VWS V14.01,2013-08-06 23:00:00,
2013-08-06 19:02:00,73.3,57.7,30.12,WNW,300,0.0,0.0,58,0.00,,---,0.00,26.00,VWS V14.01,2013-08-06 23:02:00,
2013-08-06 19:07:00,72.7,56.6,30.12,WNW,300,0.0,0.0,57,0.00,,---,0.00,25.00,VWS V14.01,2013-08-06 23:07:00,
2013-08-06 19:12:00,72.4,56.8,30.12,WNW,300,0.0,0.0,58,0.00,,---,0.00,23.00,VWS V14.01,2013-08-06 23:12:00,
2013-08-06 19:17:00,72.2,56.6,30.12,WNW,300,0.0,0.0,58,0.00,,---,0.00,21.00,VWS V14.01,2013-08-06 23:17:00,
2013-08-06 19:22:00,72.0,57.4,30.12,WNW,300,0.0,0.0,60,0.00,,---,0.00,19.00,VWS V14.01,2013-08-06 23:22:00,
2013-08-06 19:27:00,71.8,58.1,30.12,WNW,300,0.0,0.0,62,0.00,,---,0.00,16.00,VWS V14.01,2013-08-06 23:27:00,
2013-08-06 19:30:00,75.1,56.3,30.11,WNW,300,0.0,3.0,52,0.00,,---,0.00,39.00,VWS V14.01,2013-08-06 23:30:00,
2013-08-06 19:32:00,71.5,58.7,30.12,WNW,300,0.0,0.0,64,0.00,,---,0.00,14.00,VWS V14.01,2013-08-06 23:32:00,
2013-08-06 19:37:00,71.4,59.0,30.12,WNW,300,0.0,1.0,65,0.00,,---,0.00,12.00,VWS V14.01,2013-08-06 23:37:00,
2013-08-06 19:42:00,71.2,58.8,30.13,WNW,300,0.0,1.0,65,0.00,,---,0.00,11.00,VWS V14.01,2013-08-06 23:42:00,
2013-08-06 19:47:00,70.9,59.0,30.13,WNW,300,0.0,1.0,66,0.00,,---,0.00,9.00,VWS V14.01,2013-08-06 23:47:00,
2013-08-06 19:52:00,70.6,59.1,30.13,WNW,300,0.0,1.0,67,0.00,,---,0.00,5.00,VWS V14.01,2013-08-06 23:52:00,
2013-08-06 19:57:00,70.3,59.2,30.13,WNW,300,0.0,1.0,68,0.00,,---,0.00,5.00,VWS V14.01,2013-08-06 23:57:00,
2013-08-06 20:00:00,73.4,57.7,30.12,WNW,300,0.0,0.0,58,0.00,,---,0.00,26.00,VWS V14.01,2013-08-07 00:00:00,
2013-08-06 20:02:00,70.0,59.0,30.13,WNW,300,0.0,0.0,68,0.00,,---,0.00,0.00,VWS V14.01,2013-08-07 00:02:00,
2013-08-06 20:07:00,69.7,59.1,30.13,WNW,300,0.0,0.0,69,0.00,,---,0.00,0.00,VWS V14.01,2013-08-07 00:07:00,
2013-08-06 20:12:00,69.4,59.2,30.13,WNW,300,0.0,0.0,70,0.00,,---,0.00,0.00,VWS V14.01,2013-08-07 00:12:00,
2013-08-06 20:17:00,69.0,59.2,30.13,WNW,300,0.0,0.0,71,0.00,,---,0.00,0.00,VWS V14.01,2013-08-07 00:17:00,
2013-08-06 20:22:00,68.6,59.6,30.13,WNW,300,0.0,0.0,73,0.00,,---,0.00,0.00,VWS V14.01,2013-08-07 00:22:00,
2013-08-06 20:27:00,68.1,59.1,30.13,WNW,300,0.0,0.0,73,0.00,,---,0.00,0.00,VWS V14.01,2013-08-07 00:27:00,
2013-08-06 20:30:00,71.6,58.3,30.12,WNW,300,0.0,0.0,63,0.00,,---,0.00,16.00,VWS V14.01,2013-08-07 00:30:00,
2013-08-06 20:32:00,67.7,59.1,30.13,WNW,300,0.0,0.0,74,0.00,,---,0.00,0.00,VWS V14.01,2013-08-07 00:32:00,
2013-08-06 20:37:00,67.2,59.4,30.13,WNW,300,0.0,0.0,76,0.00,,---,0.00,0.00,VWS V14.01,2013-08-07 00:37:00,
2013-08-06 20:42:00,66.7,59.3,30.13,NNW,328,4.0,4.0,77,0.00,,---,0.00,0.00,VWS V14.01,2013-08-07 00:42:00,
2013-08-06 20:47:00,66.3,59.2,30.13,North,360,0.0,5.0,78,0.00,,---,0.00,0.00,VWS V14.01,2013-08-07 00:47:00,
2013-08-06 20:52:00,66.4,59.0,30.13,North,360,0.0,5.0,77,0.00,,---,0.00,0.00,VWS V14.01,2013-08-07 00:52:00,
2013-08-06 20:57:00,66.6,59.2,30.13,North,360,0.0,5.0,77,0.00,,---,0.00,0.00,VWS V14.01,2013-08-07 00:57:00,
2013-08-06 21:00:00,70.1,59.1,30.13,WNW,300,0.0,1.0,68,0.00,,---,0.00,0.00,VWS V14.01,2013-08-07 01:00:00,
2013-08-06 21:02:00,66.7,59.3,30.13,North,360,0.0,0.0,77,0.00,,---,0.00,0.00,VWS V14.01,2013-08-07 01:02:00,
2013-08-06 21:07:00,66.7,59.3,30.13,North,360,0.0,0.0,77,0.00,,---,0.00,0.00,VWS V14.01,2013-08-07 01:07:00,
2013-08-06 21:12:00,66.6,59.2,30.13,North,360,0.0,0.0,77,0.00,,---,0.00,0.00,VWS V14.01,2013-08-07 01:12:00,
2013-08-06 21:17:00,66.5,59.1,30.14,North,360,0.0,0.0,77,0.00,,---,0.00,0.00,VWS V14.01,2013-08-07 01:17:00,
2013-08-06 21:22:00,66.7,59.3,30.14,NNW,333,0.0,2.0,77,0.00,,---,0.00,0.00,VWS V14.01,2013-08-07 01:22:00,
2013-08-06 21:27:00,66.8,59.4,30.14,NNW,333,0.0,2.0,77,0.00,,---,0.00,0.00,VWS V14.01,2013-08-07 01:27:00,
2013-08-06 21:30:00,67.8,59.2,30.13,WNW,300,0.0,0.0,74,0.00,,---,0.00,0.00,VWS V14.01,2013-08-07 01:30:00,
2013-08-06 21:32:00,66.8,59.7,30.14,NNW,333,0.0,0.0,78,0.00,,---,0.00,0.00,VWS V14.01,2013-08-07 01:32:00,
2013-08-06 21:37:00,66.6,59.5,30.14,NNW,333,0.0,1.0,78,0.00,,---,0.00,0.00,VWS V14.01,2013-08-07 01:37:00,
2013-08-06 21:42:00,66.3,59.6,30.14,NNW,333,0.0,1.0,79,0.00,,---,0.00,0.00,VWS V14.01,2013-08-07 01:42:00,
2013-08-06 21:47:00,66.0,59.3,30.14,NNW,333,0.0,1.0,79,0.00,,---,0.00,0.00,VWS V14.01,2013-08-07 01:47:00,
2013-08-06 21:52:00,65.8,59.5,30.14,NNW,333,0.0,1.0,80,0.00,,---,0.00,0.00,VWS V14.01,2013-08-07 01:52:00,
2013-08-06 21:57:00,65.6,59.6,30.14,NNW,333,0.0,1.0,81,0.00,,---,0.00,0.00,VWS V14.01,2013-08-07 01:57:00,
2013-08-06 22:00:00,66.7,59.6,30.13,North,360,0.0,5.0,78,0.00,,---,0.00,0.00,VWS V14.01,2013-08-07 02:00:00,
2013-08-06 22:02:00,65.3,59.3,30.13,NNW,333,0.0,0.0,81,0.00,,---,0.00,0.00,VWS V14.01,2013-08-07 02:02:00,
2013-08-06 22:07:00,65.0,59.4,30.13,NNW,333,0.0,0.0,82,0.00,,---,0.00,0.00,VWS V14.01,2013-08-07 02:07:00,
2013-08-06 22:12:00,64.7,59.1,30.14,NNW,333,0.0,0.0,82,0.00,,---,0.00,0.00,VWS V14.01,2013-08-07 02:12:00,
2013-08-06 22:17:00,64.3,59.0,30.14,NNW,333,0.0,0.0,83,0.00,,---,0.00,0.00,VWS V14.01,2013-08-07 02:17:00,
2013-08-06 22:22:00,64.1,58.8,30.14,NNW,333,0.0,0.0,83,0.00,,---,0.00,0.00,VWS V14.01,2013-08-07 02:22:00,
2013-08-06 22:27:00,63.6,58.7,30.14,NNW,333,0.0,0.0,84,0.00,,---,0.00,0.00,VWS V14.01,2013-08-07 02:27:00,
2013-08-06 22:30:00,66.9,59.5,30.14,NNW,333,0.0,2.0,77,0.00,,---,0.00,0.00,VWS V14.01,2013-08-07 02:30:00,
2013-08-06 22:32:00,63.1,58.2,30.14,NNW,333,0.0,0.0,84,0.00,,---,0.00,0.00,VWS V14.01,2013-08-07 02:32:00,
2013-08-06 22:37:00,62.5,57.9,30.14,NNW,333,0.0,0.0,85,0.00,,---,0.00,0.00,VWS V14.01,2013-08-07 02:37:00,
2013-08-06 22:42:00,62.1,57.9,30.14,NNW,333,0.0,0.0,86,0.00,,---,0.00,0.00,VWS V14.01,2013-08-07 02:42:00,
2013-08-06 22:47:00,61.7,57.8,30.14,NNW,333,0.0,0.0,87,0.00,,---,0.00,0.00,VWS V14.01,2013-08-07 02:47:00,
2013-08-06 22:52:00,61.5,57.9,30.14,NNW,333,0.0,0.0,88,0.00,,---,0.00,0.00,VWS V14.01,2013-08-07 02:52:00,
2013-08-06 22:57:00,61.2,57.6,30.14,NNW,333,0.0,0.0,88,0.00,,---,0.00,0.00,VWS V14.01,2013-08-07 02:57:00,
2013-08-06 23:00:00,65.4,59.4,30.14,NNW,333,0.0,1.0,81,0.00,,---,0.00,0.00,VWS V14.01,2013-08-07 03:00:00,
2013-08-06 23:02:00,61.1,57.8,30.14,NNW,333,0.0,0.0,89,0.00,,---,0.00,0.00,VWS V14.01,2013-08-07 03:02:00,
2013-08-06 23:07:00,60.9,57.6,30.14,NNW,333,0.0,0.0,89,0.00,,---,0.00,0.00,VWS V14.01,2013-08-07 03:07:00,
2013-08-06 23:12:00,60.7,57.4,30.14,NNW,333,0.0,0.0,89,0.00,,---,0.00,0.00,VWS V14.01,2013-08-07 03:12:00,
2013-08-06 23:17:00,60.5,57.6,30.14,NNW,333,0.0,0.0,90,0.00,,---,0.00,0.00,VWS V14.01,2013-08-07 03:17:00,
2013-08-06 23:22:00,60.3,57.4,30.15,NNW,333,0.0,0.0,90,0.00,,---,0.00,0.00,VWS V14.01,2013-08-07 03:22:00,
2013-08-06 23:27:00,60.2,57.3,30.14,NNW,333,0.0,0.0,90,0.00,,---,0.00,0.00,VWS V14.01,2013-08-07 03:27:00,
2013-08-06 23:30:00,63.3,58.4,30.14,NNW,333,0.0,0.0,84,0.00,,---,0.00,0.00,VWS V14.01,2013-08-07 03:30:00,
2013-08-06 23:32:00,59.9,57.3,30.14,NNW,333,0.0,0.0,91,0.00,,---,0.00,0.00,VWS V14.01,2013-08-07 03:32:00,
2013-08-06 23:37:00,59.8,57.2,30.15,NNW,333,0.0,0.0,91,0.00,,---,0.00,0.00,VWS V14.01,2013-08-07 03:37:00,
2013-08-06 23:42:00,59.6,57.0,30.15,NNW,333,0.0,0.0,91,0.00,,---,0.00,0.00,VWS V14.01,2013-08-07 03:42:00,
2013-08-06 23:47:00,59.5,57.2,30.15,NNW,333,0.0,0.0,92,0.00,,---,0.00,0.00,VWS V14.01,2013-08-07 03:47:00,
2013-08-06 23:52:00,59.3,57.0,30.15,NNW,333,0.0,0.0,92,0.00,,---,0.00,0.00,VWS V14.01,2013-08-07 03:52:00,
2013-08-06 23:57:00,59.2,56.9,30.15,NNW,333,0.0,0.0,92,0.00,,---,0.00,0.00,VWS V14.01,2013-08-07 03:57:00,